Time,TemperatureF,DewpointF,PressureIn,WindDirection,WindDirectionDegrees,WindSpeedMPH,WindSpeedGustMPH,Humidity,HourlyPrecipIn,Conditions,Clouds,dailyrainin,SolarRadiationWatts/m^2,SoftwareType,DateUTC
2013-01-10 00:12:00,21.0,17.0,-100.00,SSW,201,3.0,6.0,84,0.00,,,0.00,0.000000,,2013-01-10 06:12:00,
2013-01-10 00:22:00,21.0,17.0,-100.00,SSW,201,3.0,6.0,84,0.00,,,0.00,0.000000,,2013-01-10 06:22:00,
2013-01-10 00:32:00,21.0,17.0,-100.00,SSW,201,3.0,6.0,84,0.00,,,0.00,0.000000,,2013-01-10 06:32:00,
2013-01-10 00:42:00,21.0,17.0,-100.00,SSW,201,3.0,6.0,84,0.00,,,0.00,0.000000,,2013-01-10 06:42:00,
2013-01-10 01:12:00,22.0,18.0,-100.00,SSW,198,4.0,7.0,84,0.00,,,0.00,0.000000,,2013-01-10 07:12:00,
2013-01-10 01:22:00,22.0,18.0,-100.00,SSW,198,4.0,7.0,84,0.00,,,0.00,0.000000,,2013-01-10 07:22:00,
2013-01-10 01:32:00,22.0,18.0,-100.00,SSW,198,4.0,7.0,84,0.00,,,0.00,0.000000,,2013-01-10 07:32:00,
2013-01-10 01:42:00,22.0,18.0,-100.00,SSW,198,4.0,7.0,84,0.00,,,0.00,0.000000,,2013-01-10 07:42:00,
2013-01-10 02:12:00,21.0,17.0,-100.00,South,184,5.0,6.0,86,0.00,,,0.00,0.000000,,2013-01-10 08:12:00,
2013-01-10 02:22:00,21.0,17.0,-100.00,South,184,5.0,6.0,86,0.00,,,0.00,0.000000,,2013-01-10 08:22:00,
2013-01-10 02:32:00,21.0,17.0,-100.00,South,184,5.0,6.0,86,0.00,,,0.00,0.000000,,2013-01-10 08:32:00,
2013-01-10 02:42:00,21.0,17.0,-100.00,South,184,5.0,6.0,86,0.00,,,0.00,0.000000,,2013-01-10 08:42:00,
2013-01-10 03:12:00,19.0,16.0,-100.00,East,84,2.0,5.0,89,0.00,,,0.00,0.000000,,2013-01-10 09:12:00,
2013-01-10 03:22:00,19.0,16.0,-100.00,East,84,2.0,5.0,89,0.00,,,0.00,0.000000,,2013-01-10 09:22:00,
2013-01-10 03:32:00,19.0,16.0,-100.00,East,84,2.0,5.0,89,0.00,,,0.00,0.000000,,2013-01-10 09:32:00,
2013-01-10 03:42:00,19.0,16.0,-100.00,East,84,2.0,5.0,89,0.00,,,0.00,0.000000,,2013-01-10 09:42:00,
2013-01-10 04:12:00,17.0,15.0,-100.00,ENE,73,1.0,4.0,90,0.00,,,0.00,0.000000,,2013-01-10 10:12:00,
2013-01-10 04:22:00,17.0,15.0,-100.00,ENE,73,1.0,4.0,90,0.00,,,0.00,0.000000,,2013-01-10 10:22:00,
2013-01-10 04:32:00,17.0,15.0,-100.00,ENE,73,1.0,4.0,90,0.00,,,0.00,0.000000,,2013-01-10 10:32:00,
2013-01-10 04:42:00,17.0,15.0,-100.00,ENE,73,1.0,4.0,90,0.00,,,0.00,0.000000,,2013-01-10 10:42:00,
2013-01-10 05:12:00,16.0,14.0,-100.00,SSW,203,0.0,0.0,91,0.00,,,0.00,0.000000,,2013-01-10 11:12:00,
2013-01-10 05:22:00,16.0,14.0,-100.00,SSW,203,0.0,0.0,91,0.00,,,0.00,0.000000,,2013-01-10 11:22:00,
2013-01-10 05:32:00,16.0,14.0,-100.00,SSW,203,0.0,0.0,91,0.00,,,0.00,0.000000,,2013-01-10 11:32:00,
2013-01-10 05:42:00,16.0,14.0,-100.00,SSW,203,0.0,0.0,91,0.00,,,0.00,0.000000,,2013-01-10 11:42:00,
2013-01-10 06:12:00,16.0,14.0,-100.00,East,99,0.0,4.0,90,0.00,,,0.00,0.000000,,2013-01-10 12:12:00,
2013-01-10 06:22:00,16.0,14.0,-100.00,East,99,0.0,4.0,90,0.00,,,0.00,0.000000,,2013-01-10 12:22:00,
2013-01-10 06:33:00,16.0,14.0,-100.00,East,99,0.0,4.0,90,0.00,,,0.00,0.000000,,2013-01-10 12:33:00,
2013-01-10 06:42:00,16.0,14.0,-100.00,East,99,0.0,4.0,90,0.00,,,0.00,0.000000,,2013-01-10 12:42:00,
2013-01-10 08:22:00,20.0,17.0,-100.00,ESE,112,2.0,7.0,88,-99.99,,,0.00,1.000000,,2013-01-10 14:22:00,
2013-01-10 08:33:00,20.0,17.0,-100.00,ESE,112,2.0,7.0,88,-99.99,,,0.00,1.000000,,2013-01-10 14:33:00,
2013-01-10 08:43:00,20.0,17.0,-100.00,ESE,112,2.0,7.0,88,-99.99,,,0.00,1.000000,,2013-01-10 14:43:00,
2013-01-10 09:12:00,25.0,19.0,-100.00,SE,141,4.0,8.0,79,0.00,,,0.00,43.000000,,2013-01-10 15:12:00,
2013-01-10 09:23:00,25.0,19.0,-100.00,SE,141,4.0,8.0,79,0.00,,,0.00,43.000000,,2013-01-10 15:23:00,
2013-01-10 09:33:00,25.0,19.0,-100.00,SE,141,4.0,8.0,79,0.00,,,0.00,43.000000,,2013-01-10 15:33:00,
2013-01-10 09:43:00,25.0,19.0,-100.00,SE,141,4.0,8.0,79,0.00,,,0.00,43.000000,,2013-01-10 15:43:00,
2013-01-10 10:13:00,29.0,20.0,-100.00,SE,139,3.0,10.0,70,0.00,,,0.00,134.000000,,2013-01-10 16:13:00,
2013-01-10 10:23:00,29.0,20.0,-100.00,SE,139,3.0,10.0,70,0.00,,,0.00,134.000000,,2013-01-10 16:23:00,
2013-01-10 10:33:00,29.0,20.0,-100.00,SE,139,3.0,10.0,70,0.00,,,0.00,134.000000,,2013-01-10 16:33:00,
2013-01-10 10:43:00,29.0,20.0,-100.00,SE,139,3.0,10.0,70,0.00,,,0.00,134.000000,,2013-01-10 16:43:00,
2013-01-10 11:12:00,32.0,20.0,-100.00,SE,140,4.0,9.0,61,0.00,,,0.00,155.000000,,2013-01-10 17:12:00,
2013-01-10 11:22:00,32.0,20.0,-100.00,SE,140,4.0,9.0,61,0.00,,,0.00,155.000000,,2013-01-10 17:22:00,
2013-01-10 11:33:00,32.0,20.0,-100.00,SE,140,4.0,9.0,61,0.00,,,0.00,155.000000,,2013-01-10 17:33:00,
2013-01-10 11:42:00,32.0,20.0,-100.00,SE,140,4.0,9.0,61,0.00,,,0.00,155.000000,,2013-01-10 17:42:00,
2013-01-10 12:12:00,36.0,21.0,-100.00,SE,136,3.0,12.0,54,0.00,,,0.00,204.000000,,2013-01-10 18:12:00,
2013-01-10 12:23:00,36.0,21.0,-100.00,SE,136,3.0,12.0,54,0.00,,,0.00,204.000000,,2013-01-10 18:23:00,
2013-01-10 12:33:00,36.0,21.0,-100.00,SE,136,3.0,12.0,54,0.00,,,0.00,204.000000,,2013-01-10 18:33:00,
2013-01-10 12:43:00,36.0,21.0,-100.00,SE,136,3.0,12.0,54,0.00,,,0.00,204.000000,,2013-01-10 18:43:00,
2013-01-10 13:13:00,38.0,22.0,-100.00,ESE,107,5.0,11.0,52,0.00,,,0.00,220.000000,,2013-01-10 19:13:00,
2013-01-10 13:23:00,38.0,22.0,-100.00,ESE,107,5.0,11.0,52,0.00,,,0.00,220.000000,,2013-01-10 19:23:00,
2013-01-10 13:33:00,38.0,22.0,-100.00,ESE,107,5.0,11.0,52,0.00,,,0.00,220.000000,,2013-01-10 19:33:00,
2013-01-10 13:43:00,38.0,22.0,-100.00,ESE,107,5.0,11.0,52,0.00,,,0.00,220.000000,,2013-01-10 19:43:00,
2013-01-10 14:13:00,39.0,20.0,-100.00,ESE,114,7.0,14.0,47,0.00,,,0.00,202.000000,,2013-01-10 20:13:00,
2013-01-10 14:24:00,39.0,20.0,-100.00,ESE,114,7.0,14.0,47,0.00,,,0.00,202.000000,,2013-01-10 20:24:00,
2013-01-10 14:33:00,39.0,20.0,-100.00,ESE,114,7.0,14.0,47,0.00,,,0.00,202.000000,,2013-01-10 20:33:00,
2013-01-10 14:43:00,39.0,20.0,-100.00,ESE,114,7.0,14.0,47,0.00,,,0.00,202.000000,,2013-01-10 20:43:00,
2013-01-10 15:12:00,38.0,22.0,-100.00,ESE,113,6.0,12.0,51,0.00,,,0.00,160.000000,,2013-01-10 21:12:00,
2013-01-10 15:23:00,38.0,22.0,-100.00,ESE,113,6.0,12.0,51,0.00,,,0.00,160.000000,,2013-01-10 21:23:00,
2013-01-10 15:33:00,38.0,22.0,-100.00,ESE,113,6.0,12.0,51,0.00,,,0.00,160.000000,,2013-01-10 21:33:00,
2013-01-10 15:42:00,38.0,22.0,-100.00,ESE,113,6.0,12.0,51,0.00,,,0.00,160.000000,,2013-01-10 21:42:00,
2013-01-10 16:12:00,37.0,22.0,-100.00,ESE,113,7.0,13.0,54,0.00,,,0.00,71.000000,,2013-01-10 22:12:00,
2013-01-10 16:26:00,37.0,22.0,-100.00,ESE,113,7.0,13.0,54,0.00,,,0.00,71.000000,,2013-01-10 22:26:00,
2013-01-10 16:33:00,37.0,22.0,-100.00,ESE,113,7.0,13.0,54,0.00,,,0.00,71.000000,,2013-01-10 22:33:00,
2013-01-10 16:43:00,37.0,22.0,-100.00,ESE,113,7.0,13.0,54,0.00,,,0.00,71.000000,,2013-01-10 22:43:00,
2013-01-10 17:12:00,36.0,25.0,-100.00,ESE,105,8.0,13.0,64,0.00,,,0.00,10.000000,,2013-01-10 23:12:00,
2013-01-10 17:23:00,36.0,25.0,-100.00,ESE,105,8.0,13.0,64,0.00,,,0.00,10.000000,,2013-01-10 23:23:00,
2013-01-10 17:33:00,36.0,25.0,-100.00,ESE,105,8.0,13.0,64,0.00,,,0.00,10.000000,,2013-01-10 23:33:00,
2013-01-10 17:43:00,36.0,25.0,-100.00,ESE,105,8.0,13.0,64,0.00,,,0.00,10.000000,,2013-01-10 23:43:00,
2013-01-10 18:13:00,35.0,29.0,-100.00,ESE,104,6.0,16.0,79,0.01,,,0.01,0.000000,,2013-01-11 00:13:00,
2013-01-10 18:23:00,35.0,29.0,-100.00,ESE,104,6.0,16.0,79,0.01,,,0.01,0.000000,,2013-01-11 00:23:00,
2013-01-10 18:33:00,35.0,29.0,-100.00,ESE,104,6.0,16.0,79,0.01,,,0.01,0.000000,,2013-01-11 00:33:00,
2013-01-10 18:42:00,35.0,29.0,-100.00,ESE,104,6.0,16.0,79,0.01,,,0.01,0.000000,,2013-01-11 00:42:00,
2013-01-10 19:13:00,35.0,32.0,-100.00,East,99,9.0,15.0,88,0.04,,,0.05,0.000000,,2013-01-11 01:13:00,
2013-01-10 19:23:00,35.0,32.0,-100.00,East,99,9.0,15.0,88,0.04,,,0.05,0.000000,,2013-01-11 01:23:00,
2013-01-10 19:33:00,35.0,32.0,-100.00,East,99,9.0,15.0,88,0.04,,,0.05,0.000000,,2013-01-11 01:33:00,
2013-01-10 19:43:00,35.0,32.0,-100.00,East,99,9.0,15.0,88,0.04,,,0.05,0.000000,,2013-01-11 01:43:00,
2013-01-10 20:13:00,34.0,33.0,-100.00,ESE,113,8.0,17.0,96,0.07,,,0.12,0.000000,,2013-01-11 02:13:00,
2013-01-10 20:23:00,34.0,33.0,-100.00,ESE,113,8.0,17.0,96,0.07,,,0.12,0.000000,,2013-01-11 02:23:00,
2013-01-10 20:33:00,34.0,33.0,-100.00,ESE,113,8.0,17.0,96,0.07,,,0.12,0.000000,,2013-01-11 02:33:00,
2013-01-10 20:43:00,34.0,33.0,-100.00,ESE,113,8.0,17.0,96,0.07,,,0.12,0.000000,,2013-01-11 02:43:00,
2013-01-10 21:12:00,34.0,33.0,-100.00,ESE,123,8.0,14.0,97,0.01,,,0.13,0.000000,,2013-01-11 03:12:00,
2013-01-10 21:23:00,34.0,33.0,-100.00,ESE,123,8.0,14.0,97,0.01,,,0.13,0.000000,,2013-01-11 03:23:00,
2013-01-10 21:33:00,34.0,33.0,-100.00,ESE,123,8.0,14.0,97,0.01,,,0.13,0.000000,,2013-01-11 03:33:00,
2013-01-10 21:43:00,34.0,33.0,-100.00,ESE,123,8.0,14.0,97,0.01,,,0.13,0.000000,,2013-01-11 03:43:00,
2013-01-10 22:12:00,35.0,34.0,-100.00,SE,133,7.0,18.0,97,0.01,,,0.14,0.000000,,2013-01-11 04:12:00,
2013-01-10 22:22:00,35.0,34.0,-100.00,SE,133,7.0,18.0,97,0.01,,,0.14,0.000000,,2013-01-11 04:22:00,
2013-01-10 22:33:00,35.0,34.0,-100.00,SE,133,7.0,18.0,97,0.01,,,0.14,0.000000,,2013-01-11 04:33:00,
2013-01-10 22:42:00,35.0,34.0,-100.00,SE,133,7.0,18.0,97,0.01,,,0.14,0.000000,,2013-01-11 04:42:00,
2013-01-10 23:13:00,35.0,34.0,-100.00,SE,131,5.0,15.0,98,0.00,,,0.14,0.000000,,2013-01-11 05:13:00,
2013-01-10 23:22:00,35.0,34.0,-100.00,SE,131,5.0,15.0,98,0.00,,,0.14,0.000000,,2013-01-11 05:22:00,
2013-01-10 23:33:00,35.0,34.0,-100.00,SE,131,5.0,15.0,98,0.00,,,0.14,0.000000,,2013-01-11 05:33:00,
2013-01-10 23:42:00,35.0,34.0,-100.00,SE,131,5.0,15.0,98,0.00,,,0.14,0.000000,,2013-01-11 05:42:00,